Flag for Germany Weather past 2 weeks in Erding, Bavaria, Germany

39 °F


Feels Like: 34 °F
Forecast: 40 / 48 °F
Wind: 7 mph from East

Location: Munich / Franz Josef Strauss Airport

Current Time: Oct 13, 2015 at 10:24:30 AM

Latest Report: Oct 13, 2015 at 9:50 AM

Visibility: 3 mi

Pressure: 29.95 "Hg

Humidity: 93%

Dew point: 37 °F

Location of ErdingLocation

Historic Weather in Erding — Graph


Erding temperature yesterday

Maximum temperature yesterday: 52 °F (at 2:50 PM)
Minimum temperature yesterday: 32 °F (at 5:50 AM)
Average temperature yesterday: 41 °F

Past Weeks' High & Low Weather Summary

High72 °F (Oct 6, 2:20 PM)100% (Sep 29, 7:50 AM)30.51 "Hg (Sep 29, 7:50 AM)
Low32 °F (Oct 12, 5:50 AM)37% (Oct 1, 3:50 PM)29.71 "Hg (Oct 6, 4:20 PM)
Average51 °F80%30.10 "Hg
* Reported Sep 28 9:20 AM — Oct 13 9:20 AM, Erding, Weather by CustomWeather, © 2015

Note: Actual official high and low records may vary slightly from our data, if they occured in-between our weather recording intervals... More about our weather records


Erding weather history for previous 24 hours

Time TempWeatherWind HumidityBarometerVisibility
9:20 AM
Tue, Oct 13
39 °FFog.7 mph93%29.95 "Hg3 mi
8:50 AM39 °FFog.5 mph93%29.95 "Hg3 mi
8:20 AM37 °FFog.5 mph100%29.95 "Hg3 mi
7:50 AM37 °FFog.3 mph100%29.95 "Hg3 mi
7:20 AM37 °FFog.2 mph100%29.95 "Hg3 mi
6:50 AM37 °FFog.2 mph100%29.95 "Hg3 mi
6:20 AM37 °FFog.2 mph100%29.95 "Hg2 mi
5:50 AM37 °FChilly.1 mph100%29.95 "Hg2 mi
5:20 AM37 °FFog.1 mph100%29.95 "Hg1 mi
4:50 AM37 °FFog.1 mph100%29.95 "Hg0 mi
4:20 AM37 °FFog.2 mph100%29.95 "Hg0 mi
3:50 AM37 °FChilly.2 mph100%29.98 "HgN/A
3:20 AM36 °FSnow. Overcast.3 mph100%29.98 "Hg2 mi
2:50 AM34 °FPassing clouds.2 mph100%29.98 "Hg4 mi
2:20 AM34 °FClear.3 mph100%29.98 "Hg5 mi
1:50 AM34 °FClear.3 mph100%29.98 "Hg10 mi
1:20 AM34 °FClear.1 mph100%29.98 "Hg10 mi
12:50 AM34 °FClear.No wind100%29.98 "Hg10 mi
12:20 AM34 °FClear.1 mph100%29.98 "Hg10 mi
11:50 PM
Mon, Oct 12
34 °FClear.1 mph100%29.98 "Hg10 mi
11:20 PM36 °FClear.2 mph100%29.98 "Hg10 mi
10:50 PM36 °FClear.2 mph93%29.98 "Hg10 mi
10:20 PM37 °FClear.2 mph93%29.98 "Hg10 mi
9:50 PM37 °FClear.1 mph100%29.98 "Hg10 mi
9:20 PM39 °FClear.2 mph93%29.98 "Hg10 mi
8:50 PM39 °FClear.2 mph87%29.98 "Hg10 mi
8:20 PM41 °FClear.No wind87%29.98 "Hg10 mi
7:50 PM43 °FClear.3 mph81%29.98 "Hg10 mi
7:20 PM45 °FSunny.3 mph76%30.01 "Hg10 mi
6:50 PM46 °FPassing clouds.3 mph71%29.98 "HgN/A
6:20 PM48 °FSunny.5 mph66%29.98 "Hg10 mi
5:50 PM48 °FSunny.6 mph66%29.98 "Hg10 mi
5:20 PM50 °FSunny.9 mph62%29.98 "Hg10 mi
4:50 PM52 °FPassing clouds.7 mph58%29.98 "HgN/A
4:20 PM52 °FPassing clouds.9 mph62%29.98 "HgN/A
3:50 PM52 °FPassing clouds.9 mph58%29.98 "HgN/A
3:20 PM52 °FPassing clouds.7 mph58%29.98 "HgN/A
2:50 PM52 °FPassing clouds.8 mph58%29.98 "HgN/A
2:20 PM50 °FSunny.9 mph62%30.01 "Hg10 mi
1:50 PM50 °FPassing clouds.7 mph58%30.01 "HgN/A
1:20 PM48 °FPassing clouds.9 mph62%30.01 "HgN/A
12:50 PM48 °FSunny.10 mph62%30.01 "Hg10 mi
12:20 PM46 °FPassing clouds.10 mph62%30.01 "HgN/A
11:50 AM46 °FPassing clouds.9 mph62%30.04 "HgN/A
11:20 AM45 °FSunny.9 mph66%30.01 "Hg10 mi
10:50 AM43 °FPassing clouds.8 mph76%30.04 "HgN/A
10:20 AM41 °FSunny.8 mph76%30.04 "Hg10 mi
Weather by CustomWeather, © 2015

See weather overviewHow to use our weather pages